Mattoon, IL

11:21 PM CST on November 19, 2019 (GMT -0600)
Coles County Memorial

Weather History for KMTO - September, 2019

Change the Weather History Date:

Thursday, September 12, 2019

  Actual Average Record
Temperature  
Mean Temperature 81 °F 68 °F  
Max Temperature 89 °F 80 °F 94 °F (1991)
Min Temperature 72 °F 57 °F 37 °F (1955)
Degree Days  
Heating Degree Days 0 1  
Month to date heating degree days 0 6  
Since 1 July heating degree days 0 11  
Cooling Degree Days 16 4  
Month to date cooling degree days 88 69  
Year to date cooling degree days 1073 989  
Growing Degree Days 31 (Base 50)    
Moisture  
Dew Point 70 °F    
Average Humidity 70    
Maximum Humidity 87    
Minimum Humidity 52    
Precipitation  
Precipitation 0.00 in 0.10 in 1.20 in (1951)
Month to date precipitation 0.47 1.34  
Year to date precipitation 25.60 27.24  
Sea Level Pressure  
Sea Level Pressure 30.07 in    
Wind  
Wind Speed 6 mph (South)    
Max Wind Speed 13 mph    
Max Gust Speed 18 mph    
Visibility 9 miles    
Events      
T = Trace of Precipitation, MM = Missing Value Source: NWS Daily Summary

Daily Weather History Graph

Daily Weather History Graph

Search for Another Location

Airport or City:

Astronomy

Sep. 12, 2019 Rise Set
Actual Time 6:31 AM CDT 7:06 PM CDT
Civil Twilight 6:04 AM CDT 7:33 PM CDT
Nautical Twilight 5:32 AM CDT 8:05 PM CDT
Astronomical Twilight 4:59 AM CDT 8:38 PM CDT
Moon 6:50 PM CDT (9/12) 4:51 AM CDT (9/12)
Length of Visible Light 13h 29m
Length of Day
12h 35m
Waxing Gibbous, 98% of the Moon is Illuminated
Sep 12
Waxing Gibbous
Sep 13
Full
Sep 21
Last Quarter
Sep 28
New
Oct 5
First Quarter

Hourly Weather History & Observations

Time (CDT) Temp. Heat Index Dew Point Humidity Pressure Visibility Wind Dir Wind Speed Gust Speed Precip Events Conditions
12:53 AM 75.0 °F - 69.1 °F 82% 30.05 in 10.0 mi South 4.6 mph - N/A   Clear
1:53 AM 73.9 °F - 69.1 °F 85% 30.05 in 10.0 mi South 5.8 mph - N/A   Clear
2:53 AM 73.0 °F - 69.1 °F 87% 30.06 in 10.0 mi South 5.8 mph - N/A   Clear
3:53 AM 73.0 °F - 69.1 °F 87% 30.07 in 10.0 mi South 5.8 mph - N/A   Clear
4:53 AM 73.0 °F - 69.1 °F 87% 30.08 in 8.0 mi South 6.9 mph - N/A   Clear
5:53 AM 73.0 °F - 69.1 °F 87% 30.10 in 7.0 mi South 4.6 mph - N/A   Clear
6:53 AM 73.0 °F - 69.1 °F 87% 30.12 in 6.0 mi SSW 5.8 mph - N/A   Clear
7:53 AM 73.9 °F - 70.0 °F 87% 30.12 in 6.0 mi SSW 5.8 mph - N/A   Clear
8:53 AM 78.1 °F - 71.1 °F 79% 30.12 in 7.0 mi SSW 5.8 mph - N/A   Clear
9:53 AM 82.0 °F 86.7 °F 72.0 °F 71% 30.12 in 8.0 mi SW 8.1 mph - N/A   Clear
10:53 AM 84.9 °F 90.7 °F 72.0 °F 65% 30.11 in 9.0 mi WSW 6.9 mph - N/A   Clear
11:53 AM 87.1 °F 92.8 °F 71.1 °F 59% 30.10 in 10.0 mi SW 8.1 mph - N/A   Clear
12:53 PM 87.1 °F 92.0 °F 70.0 °F 57% 30.09 in 10.0 mi SSW 8.1 mph - N/A   Partly Cloudy
1:53 PM 88.0 °F 93.8 °F 71.1 °F 57% 30.08 in 10.0 mi SW 6.9 mph - N/A   Partly Cloudy
2:53 PM 89.1 °F 94.1 °F 70.0 °F 53% 30.07 in 10.0 mi Variable 5.8 mph - N/A   Clear
3:53 PM 89.1 °F 95.0 °F 71.1 °F 55% 30.05 in 10.0 mi South 10.4 mph - N/A   Partly Cloudy
4:53 PM 88.0 °F 92.9 °F 70.0 °F 55% 30.04 in 10.0 mi South 6.9 mph - N/A   Clear
5:53 PM 87.1 °F 93.6 °F 72.0 °F 61% 30.03 in 10.0 mi South 5.8 mph - N/A   Clear
6:53 PM 82.9 °F 88.0 °F 72.0 °F 69% 30.02 in 10.0 mi SSE 3.5 mph - N/A   Clear
7:53 PM 79.0 °F - 72.0 °F 79% 30.04 in 10.0 mi SSE 4.6 mph - N/A   Clear
8:53 PM 79.0 °F - 71.1 °F 77% 30.04 in 10.0 mi SSE 6.9 mph - N/A   Clear
9:53 PM 78.1 °F - 71.1 °F 79% 30.06 in 10.0 mi SSE 6.9 mph - N/A   Clear
10:53 PM 77.0 °F - 70.0 °F 79% 30.06 in 10.0 mi South 5.8 mph - N/A   Clear
11:53 PM 75.9 °F - 69.1 °F 79% 30.04 in 10.0 mi South 5.8 mph - N/A   Clear